Change the Weather History Date:

Saturday, August 18, 2012

  Actual Average Record
Temperature  
Mean Temperature 69 °F 77 °F  
Max Temperature 87 °F 89 °F 105 °F (2003)
Min Temperature 51 °F 65 °F 51 °F (2012)
Degree Days  
Heating Degree Days 0 0  
Month to date heating degree days 0 0  
Since 1 June heating degree days 13 12  
Since 1 July heating degree days 0 1  
Cooling Degree Days 4 12  
Month to date cooling degree days 197 239  
Year to date cooling degree days 1510 1045  
Since 1 June cooling degree days 1230 945  
Growing Degree Days 18 (Base 50)    
Moisture  
Dew Point 46 °F    
Average Humidity 53    
Maximum Humidity 83    
Minimum Humidity 22    
Precipitation  
Precipitation 0.00 in 0.16 in 0.52 in (2004)
Month to date precipitation 1.09 2.20  
Year to date precipitation 13.72 22.46  
Sea Level Pressure  
Sea Level Pressure 29.95 in    
Wind  
Wind Speed 4 mph (NE)    
Max Wind Speed 18 mph    
Max Gust Speed 24 mph    
Visibility 10 miles    
Events      
T = Trace of Precipitation, MM = Missing Value Source: NWS Daily Summary

Daily Weather History Graph

Daily Weather History Graph

Search for Another Location

Airport or City:

Trip Planner

Search our weather history database for the weather conditions in past years. The results will help you decide how hot, cold, wet, or windy it might be!

Date:

Astronomy

Aug. 18, 2012 Rise Set
Actual Time 6:43 AM CDT 8:17 PM CDT
Civil Twilight 6:14 AM CDT 8:45 PM CDT
Nautical Twilight 5:40 AM CDT 9:19 PM CDT
Astronomical Twilight 5:04 AM CDT 9:55 PM CDT
Moon 7:51 AM CDT (8/18) 8:35 PM CDT (8/18)
Length of Visible Light 14h 30m
Length of Day
13h 33m
New Moon, 1% of the Moon is Illuminated
Aug 18
New Moon
Aug 24
First Quarter
Aug 31
Full
Sep 8
Last Quarter
Sep 15
New

Hourly Weather History & Observations

Time (CDT) Temp. Dew Point Humidity Pressure Visibility Wind Dir Wind Speed Gust Speed Precip Events Conditions
12:52 AM 54.0 °F 48.0 °F 80% 30.04 in 10.0 mi Calm Calm - 0.00 in   Clear
1:52 AM 57.9 °F 48.9 °F 72% 30.04 in 10.0 mi Calm Calm - N/A   Scattered Clouds
2:52 AM 57.9 °F 48.9 °F 72% 30.02 in 10.0 mi Calm Calm - N/A   Mostly Cloudy
3:52 AM 60.1 °F 48.0 °F 64% 30.01 in 10.0 mi Calm Calm - N/A   Overcast
4:52 AM 60.1 °F 46.9 °F 62% 30.00 in 10.0 mi Calm Calm - N/A   Overcast
5:52 AM 55.9 °F 48.0 °F 75% 29.98 in 10.0 mi Calm Calm - N/A   Mostly Cloudy
6:52 AM 53.1 °F 46.9 °F 80% 29.97 in 10.0 mi Calm Calm - N/A   Clear
7:52 AM 60.1 °F 51.1 °F 72% 29.98 in 10.0 mi Calm Calm - N/A   Clear
8:52 AM 66.0 °F 48.0 °F 52% 29.98 in 10.0 mi Calm Calm - N/A   Clear
9:52 AM 73.4 °F 48.2 °F 41% 29.98 in 10.0 mi Calm Calm - N/A   Clear
10:52 AM 78.1 °F 44.1 °F 30% 29.97 in 10.0 mi South 5.8 mph - N/A   Clear
11:52 AM 81.0 °F 43.0 °F 26% 29.96 in 10.0 mi Variable 3.5 mph - N/A   Clear
12:52 PM 84.0 °F 42.1 °F 23% 29.95 in 10.0 mi NE 5.8 mph - N/A   Partly Cloudy
1:52 PM 82.9 °F 42.1 °F 24% 29.90 in 10.0 mi NE 8.1 mph - N/A   Clear
2:52 PM 84.9 °F 42.1 °F 22% 29.88 in 10.0 mi Calm Calm - N/A   Clear
3:52 PM 84.9 °F 41.0 °F 21% 29.86 in 10.0 mi NNW 3.5 mph - N/A   Clear
4:52 PM 84.9 °F 43.0 °F 23% 29.85 in 10.0 mi WNW 3.5 mph - N/A   Mostly Cloudy
5:52 PM 84.0 °F 43.0 °F 24% 29.86 in 10.0 mi NNE 3.5 mph - N/A   Overcast
6:52 PM 78.1 °F 46.0 °F 32% 29.88 in 10.0 mi NE 16.1 mph - N/A   Partly Cloudy
7:52 PM 73.9 °F 46.0 °F 37% 29.89 in 10.0 mi ENE 13.8 mph - N/A   Mostly Cloudy
8:52 PM 71.1 °F 46.9 °F 42% 29.90 in 10.0 mi ENE 8.1 mph - N/A   Partly Cloudy
9:52 PM 66.9 °F 48.0 °F 51% 29.91 in 10.0 mi East 4.6 mph - N/A   Clear
10:52 PM 66.0 °F 48.0 °F 52% 29.94 in 10.0 mi NNE 4.6 mph - N/A   Partly Cloudy
11:52 PM 64.9 °F 48.9 °F 56% 29.96 in 10.0 mi NNE 4.6 mph - N/A   Mostly Cloudy